This is the latest recevied weather packets stored in our database for station/object N9DMT-13. If no packets are shown the sender has not sent any weather packets the latest 10 day(s).
| Time | Temp. | Humidity | Pressure | Rain* | Wind** | Luminosity | Snow |
|---|---|---|---|---|---|---|---|
| 1778184977 | 16.67° C | 34% | 977.9 hPa | 0 mm | - | - | - |
| 1778184677 | 16.67° C | 34% | 977.8 hPa | 0 mm | - | - | - |
| 1778184075 | 16.67° C | 34% | 978 hPa | 0 mm | - | - | - |
| 1778183774 | 17.22° C | 33% | 977.9 hPa | 0 mm | - | - | - |
| 1778183473 | 16.11° C | 35% | 978.1 hPa | 0 mm | - | - | - |
| 1778183173 | 15.56° C | 36% | 978 hPa | 0 mm | - | - | - |
| 1778182872 | 15.56° C | 34% | 978.4 hPa | 0 mm | - | - | - |
| 1778182571 | 15° C | 35% | 978.3 hPa | 0 mm | - | - | - |
| 1778182270 | 14.44° C | 37% | 978.2 hPa | 0 mm | - | - | - |
| 1778181969 | 15.56° C | 37% | 978.3 hPa | 0 mm | - | - | - |
| 1778181669 | 16.67° C | 33% | 978.2 hPa | 0 mm | - | - | - |
| 1778181368 | 16.11° C | 37% | 978.3 hPa | 0 mm | - | - | - |
| 1778181066 | 16.11° C | 36% | 978.2 hPa | 0 mm | - | - | - |
| 1778180766 | 16.11° C | 36% | 978.2 hPa | 0 mm | - | - | - |
| 1778180465 | 15.56° C | 35% | 978.3 hPa | 0 mm | - | - | - |
| 1778180164 | 15.56° C | 37% | 978.2 hPa | 0 mm | - | - | - |
| 1778179863 | 16.11° C | 35% | 978.2 hPa | 0 mm | - | - | - |
| 1778179563 | 16.11° C | 36% | 978.4 hPa | 0 mm | - | - | - |
| 1778179262 | 15.56° C | 43% | 978.3 hPa | 0 mm | - | - | - |
| 1778178961 | 16.11° C | 37% | 978.4 hPa | 0 mm | - | - | - |
| 1778178660 | 15.56° C | 45% | 978.2 hPa | 0 mm | - | - | - |
| 1778178360 | 16.11° C | 34% | 978.3 hPa | 0 mm | - | - | - |
| 1778178059 | 15.56° C | 39% | 978.3 hPa | 0 mm | - | - | - |
| 1778177759 | 15.56° C | 38% | 978.5 hPa | 0 mm | - | - | - |
| 1778177457 | 15° C | 39% | 978.6 hPa | 0 mm | - | - | - |
* Rain latest hour (hover to see other rain measurements)
** Current wind speed in m/s (hover to see current wind gust speed)